Date,TemperatureHighF,TemperatureAvgF,TemperatureLowF,DewpointHighF,DewpointAvgF,DewpointLowF,HumidityHigh,HumidityAvg,HumidityLow,PressureMaxIn,PressureMinIn,WindSpeedMaxMPH,WindSpeedAvgMPH,GustSpeedMaxMPH,PrecipitationSumIn
2013-1-1,38,26,16,17,12,6,77,56,36,24.52,24.39,24,10,24,0.00
2013-1-2,64,24,12,19,7,2,70,50,24,25.20,24.44,17,7,17,0.00
2013-1-3,38,24,16,11,5,1,60,45,25,24.62,24.51,20,11,20,0.00
2013-1-4,33,21,11,2,-2,-7,56,37,22,24.59,24.51,15,9,15,0.00
2013-1-5,44,31,18,8,2,-4,46,30,21,24.64,24.52,17,8,17,0.00
2013-1-6,43,29,17,7,3,-3,50,34,22,24.65,24.43,16,7,16,0.00
2013-1-7,45,34,29,18,11,4,59,39,23,24.54,24.30,20,8,20,0.00
2013-1-8,34,32,26,18,15,14,62,51,44,24.54,24.31,20,14,20,0.00
2013-1-9,53,38,29,18,13,6,55,38,22,24.70,24.47,21,9,21,0.00
2013-1-10,47,36,26,16,11,6,50,36,22,24.47,24.12,16,6,16,0.00
2013-1-11,38,30,14,26,0,-16,62,29,21,24.26,24.07,38,15,38,0.00
2013-1-12,36,21,12,0,-8,-16,38,27,21,24.29,24.19,20,8,20,0.00
2013-1-13,32,24,13,0,-6,-14,30,25,21,24.34,24.27,15,6,15,0.00
2013-1-14,30,20,13,21,8,-9,85,61,29,24.37,24.26,22,9,22,0.00
2013-1-15,23,14,7,-1,-6,-10,55,41,30,24.61,24.36,26,15,26,0.00
2013-1-16,40,26,15,12,3,-6,49,37,26,24.69,24.59,18,8,18,0.00
2013-1-17,32,26,21,14,10,7,55,51,46,24.71,24.68,10,6,10,0.00
2013-1-18,55,42,31,20,17,13,50,37,21,24.68,24.55,15,7,15,0.00
2013-1-19,57,42,31,21,17,14,54,39,20,24.66,24.56,16,8,16,0.00
2013-1-20,58,42,28,18,12,6,56,31,19,24.63,24.50,18,9,18,0.00
2013-1-21,52,37,23,19,12,7,55,37,21,24.65,24.54,18,11,18,0.00
2013-1-22,46,37,25,19,12,6,56,37,21,24.63,24.56,22,7,22,0.00
2013-1-23,54,39,26,14,9,2,50,30,20,24.69,24.61,13,6,13,0.00
2013-1-24,58,43,31,37,16,3,70,36,20,24.63,24.57,15,5,15,0.00
2013-1-25,52,45,41,40,36,32,77,71,63,24.60,24.51,9,4,9,0.00
2013-1-26,52,47,43,50,42,36,98,85,66,24.51,24.28,31,6,31,0.02
2013-1-27,61,48,39,42,39,32,99,73,34,24.35,24.28,22,7,22,0.00
2013-1-28,55,42,35,41,34,17,92,72,47,24.31,24.15,21,10,21,0.04
2013-1-29,35,30,25,21,15,5,71,56,32,24.29,24.10,37,15,37,0.22
2013-1-30,40,31,23,19,12,1,65,46,23,24.51,24.30,30,12,30,0.00
2013-1-31,38,32,26,22,20,17,71,62,52,24.65,24.50,12,6,12,0.00
2013-2-1,60,40,27,24,19,16,67,46,21,24.65,24.50,17,6,17,0.00
2013-2-2,63,48,37,26,20,13,61,34,18,24.68,24.61,14,6,14,0.00
2013-2-3,53,44,33,31,22,15,57,43,23,24.65,24.37,15,6,15,0.00
2013-2-4,56,42,35,32,26,20,73,55,30,24.45,24.37,23,12,23,0.00
2013-2-5,64,48,34,28,19,8,57,35,17,24.45,24.35,20,6,20,0.00
2013-2-6,60,43,30,26,20,15,63,41,22,24.37,24.27,15,6,15,0.00
2013-2-7,59,45,37,28,23,7,61,43,22,24.49,24.36,17,7,17,0.00
2013-2-8,54,40,34,23,20,17,54,45,26,24.46,24.26,15,9,15,0.00
2013-2-9,54,37,28,27,14,4,69,42,21,24.19,24.04,36,20,36,0.45
2013-2-10,44,36,26,23,12,4,79,40,22,24.30,24.19,21,9,21,0.00
2013-2-11,49,34,21,26,18,6,86,57,20,24.34,24.25,22,8,22,0.00
2013-2-12,32,26,21,19,12,6,72,56,35,24.48,24.29,24,12,24,0.00
2013-2-13,47,34,21,16,10,5,53,38,22,24.48,24.38,28,12,28,0.00
2013-2-14,48,34,25,22,17,13,62,50,30,24.53,24.41,28,9,28,0.00
2013-2-15,46,34,24,22,12,3,73,44,21,24.65,24.53,24,9,24,0.00
2013-2-16,61,49,31,19,12,3,38,23,18,24.70,24.51,18,7,18,0.00
2013-2-17,62,52,40,18,13,6,24,21,18,24.51,24.13,24,11,24,0.00
2013-2-18,52,41,32,18,8,-2,49,25,20,24.42,24.20,26,13,26,0.01
2013-2-19,34,32,30,0,-1,-2,24,23,21,24.42,24.39,13,8,13,0.00
2013-2-20,53,41,32,36,27,-1,84,62,23,24.38,23.95,28,12,28,0.00
2013-2-21,33,32,32,27,26,22,83,76,67,24.02,23.96,22,9,22,0.00
2013-2-23,52,43,32,23,10,3,69,27,21,24.36,24.02,24,8,24,0.00
2013-2-24,41,34,28,23,10,-1,71,39,22,24.24,24.04,37,20,37,0.25
2013-2-25,49,35,23,15,8,-4,57,35,20,24.39,24.24,28,14,28,0.00
2013-2-26,48,32,21,16,5,-5,51,33,20,24.29,24.21,30,8,30,0.00
2013-2-27,49,37,21,13,4,-9,46,24,20,24.56,24.21,25,8,25,0.00
2013-2-28,37,29,24,1,-4,-9,25,23,21,24.60,24.53,12,6,12,0.00
2013-3-1,36,34,32,5,2,-1,30,26,21,24.61,24.59,15,5,15,0.00
2013-3-2,70,56,32,24,19,4,49,24,15,24.71,24.54,20,9,20,0.00
2013-3-3,68,53,33,43,18,5,51,27,15,24.70,24.27,28,9,28,0.00
2013-3-4,63,52,40,22,19,11,46,28,16,24.47,24.21,36,11,36,0.08
2013-3-5,62,52,34,23,18,12,58,27,18,24.62,24.47,16,7,16,0.08
2013-3-6,64,53,42,23,19,11,41,26,21,24.50,24.37,17,7,17,0.08
2013-3-7,72,53,37,21,15,6,40,23,13,24.70,24.33,17,5,17,0.00
2013-3-8,71,49,38,44,31,13,95,60,13,24.32,24.16,29,10,29,0.00
2013-3-9,46,38,32,36,24,14,93,60,30,24.33,24.17,30,11,30,0.00
2013-3-10,53,39,27,29,21,10,90,56,22,24.49,24.32,23,8,23,0.00
2013-3-11,58,46,30,21,17,13,56,33,19,24.51,24.38,23,9,23,0.00
2013-3-12,61,49,37,24,22,17,54,35,22,24.59,24.43,21,11,21,0.00
2013-3-13,70,50,36,28,22,14,61,36,14,24.68,24.56,18,7,18,0.00
2013-3-14,70,52,42,24,21,14,48,32,15,24.68,24.61,17,7,17,0.00
2013-3-15,81,68,44,26,21,12,28,17,12,24.65,24.35,14,7,14,0.00
2013-3-16,72,61,48,37,21,13,59,23,13,24.35,24.20,34,11,34,0.04
2013-3-17,70,58,42,37,23,6,64,30,14,24.29,24.13,36,14,36,0.07
2013-3-18,66,51,37,20,13,6,28,22,16,24.38,24.26,29,8,29,0.00
2013-3-19,64,52,42,19,14,6,31,22,17,24.53,24.37,33,8,33,0.00
2013-3-20,59,47,33,28,18,11,45,32,22,24.57,24.27,18,9,18,0.00
2013-3-21,69,55,46,35,25,12,53,34,14,24.27,24.11,34,12,34,0.00
2013-3-22,67,52,37,29,14,1,41,22,15,24.22,24.06,31,10,31,0.00
2013-3-23,51,37,25,28,3,-8,41,23,21,24.42,24.13,46,23,46,1.28
2013-3-24,52,42,25,14,6,-9,25,22,20,24.44,24.27,31,12,31,0.00
2013-3-25,54,39,22,14,8,2,51,28,21,24.52,24.41,24,10,24,0.00
2013-3-26,59,42,31,18,7,1,30,24,20,24.52,24.35,17,9,17,0.00
2013-3-27,73,56,42,20,15,7,26,20,12,24.45,24.35,24,8,24,0.00
2013-3-28,71,58,45,22,17,8,25,20,13,24.50,24.41,29,6,29,0.00
2013-3-29,77,63,48,25,18,14,27,18,12,24.54,24.43,23,8,23,0.00
2013-3-30,74,60,44,26,19,14,33,21,12,24.53,24.38,21,8,21,0.00
2013-3-31,76,62,48,35,26,19,45,27,14,24.49,24.35,21,6,21,0.00
2013-4-1,75,61,49,26,21,14,39,23,12,24.44,24.26,21,7,21,0.04
2013-4-2,67,53,43,24,18,9,36,25,15,24.37,24.28,21,7,21,0.04
2013-4-3,61,48,37,33,27,20,74,48,23,24.49,24.37,20,7,20,0.00
2013-4-4,73,54,39,30,24,16,60,34,12,24.57,24.44,12,6,12,0.00
2013-4-5,73,60,50,20,17,13,23,19,12,24.47,24.24,20,6,20,0.00
2013-4-6,75,60,50,24,21,16,35,22,12,24.37,24.24,21,8,21,0.00
2013-4-7,75,64,47,25,20,16,40,19,12,24.31,24.19,26,9,26,0.00
2013-4-8,78,64,49,32,23,14,46,22,12,24.19,23.86,41,16,41,0.41
2013-4-9,56,45,39,38,33,22,86,64,26,24.45,23.88,30,12,30,0.00
2013-4-10,51,41,35,37,27,18,99,60,33,24.31,24.23,21,9,21,0.00
2013-4-13,75,68,45,27,19,16,48,16,12,24.28,24.10,28,14,28,0.00
2013-4-14,76,67,55,27,22,17,28,18,12,24.14,24.05,32,19,32,0.01
2013-4-15,69,57,48,25,22,19,35,26,15,24.19,24.12,23,10,23,0.00
2013-4-16,81,68,56,26,21,16,25,17,12,24.23,24.09,31,15,31,0.28
2013-4-17,57,56,55,20,18,13,24,22,19,24.16,24.15,17,11,17,0.00
2013-4-18,46,40,33,8,5,-1,27,23,20,24.53,24.38,32,20,32,0.05
2013-4-19,66,46,29,18,9,-2,27,22,16,24.60,24.36,18,8,18,0.00
2013-4-20,68,56,43,20,14,7,24,19,14,24.37,24.26,33,11,33,0.01
2013-4-21,77,65,53,52,20,13,71,18,12,24.51,24.36,24,11,24,0.01
2013-4-22,77,62,48,24,18,13,25,18,12,24.40,24.22,23,9,23,0.00
2013-4-23,68,55,39,32,20,6,55,27,16,24.45,24.24,30,11,30,0.19
2013-4-24,55,36,28,20,17,13,62,47,21,24.53,24.46,20,10,20,0.00
2013-4-25,67,56,48,32,26,14,44,33,19,24.49,24.32,23,13,23,0.00
2013-4-26,75,61,43,33,24,16,54,27,12,24.56,24.41,25,9,25,0.00
2013-4-27,79,64,49,31,22,4,45,22,11,24.59,24.44,24,9,24,0.00
2013-4-28,83,70,52,30,20,12,21,15,11,24.48,24.31,18,8,18,0.00
2013-4-29,82,70,53,30,19,13,21,15,11,24.36,24.21,16,7,16,0.00
2013-4-30,84,67,56,51,20,9,79,17,11,24.29,24.21,25,8,25,0.00
2013-5-1,83,68,51,31,20,14,45,17,11,24.57,24.23,30,13,30,0.01
2013-5-2,63,50,36,31,19,9,61,32,18,24.78,24.56,22,11,22,0.00
2013-5-3,69,57,40,20,16,9,30,20,14,24.72,24.38,20,8,20,0.00
2013-5-4,79,64,41,72,18,6,97,18,10,24.40,24.29,29,11,29,0.00
2013-5-5,74,65,55,33,22,16,31,20,13,24.51,24.38,28,10,28,0.00
2013-5-10,53,52,52,44,43,43,73,71,68,24.64,24.62,22,6,22,0.00
2013-5-11,72,60,46,46,36,23,89,45,16,24.67,24.61,23,9,23,0.00
2013-5-12,84,68,50,37,30,23,56,26,12,24.68,24.51,20,6,20,0.00
2013-5-13,86,70,52,32,28,18,44,23,12,24.64,24.49,20,6,20,0.00
2013-5-14,89,72,55,71,27,17,97,20,11,24.53,24.33,29,7,29,0.00
2013-5-15,85,71,63,43,35,18,42,29,12,24.41,24.28,37,8,37,0.00
2013-5-16,81,69,40,35,23,19,84,18,12,24.43,24.06,14,5,14,0.00
2013-5-17,81,70,57,26,21,8,23,16,11,24.43,24.29,32,7,32,0.00
2013-5-18,82,69,58,31,21,16,32,16,11,24.41,24.25,30,14,30,0.00
2013-5-19,75,64,53,72,30,16,97,31,12,24.37,24.28,32,15,32,0.00
2013-5-20,72,58,47,38,32,18,65,40,13,24.39,24.27,39,11,39,0.05
2013-5-21,81,67,46,72,28,18,97,28,12,24.44,24.06,27,10,27,0.00
2013-5-22,90,73,56,31,24,16,29,17,11,24.36,24.23,21,7,21,0.00
2013-5-23,93,80,64,38,25,16,18,13,11,24.41,24.27,26,9,26,0.00
2013-5-24,90,75,60,54,36,16,66,29,11,24.51,24.35,29,8,29,0.00
2013-5-25,94,76,58,80,26,7,97,16,11,24.49,24.31,24,8,24,0.00
2013-5-26,91,76,59,31,23,16,20,14,11,24.47,24.06,21,8,21,0.00
2013-5-27,87,72,57,31,21,16,21,15,11,24.43,24.27,29,10,29,0.01
2013-5-28,87,73,53,31,22,9,23,15,11,24.30,24.10,24,9,24,0.00
2013-5-29,81,71,58,62,26,16,97,20,11,24.22,24.11,49,13,49,0.27
2013-5-30,87,73,55,62,24,16,97,16,11,24.33,24.06,34,12,34,0.05
2013-5-31,86,75,63,80,29,16,97,19,11,24.42,24.30,33,15,33,0.01
2013-6-1,90,73,51,40,22,3,48,16,11,24.50,24.40,17,7,17,0.00
2013-6-2,87,73,59,53,36,26,53,27,17,24.53,24.06,23,8,23,0.00
2013-6-3,94,76,62,52,40,16,63,33,11,24.43,24.27,29,11,29,0.00
2013-6-4,96,80,61,38,26,16,19,14,11,24.43,24.30,24,9,24,0.00
2013-6-5,93,78,66,47,30,19,42,19,11,24.44,24.22,26,9,26,0.00
2013-6-6,92,73,56,47,40,23,61,34,11,24.47,24.33,26,10,26,0.00
2013-6-7,94,74,60,53,44,28,74,39,11,24.47,24.26,37,10,37,0.00
2013-6-8,96,79,59,47,39,21,62,29,11,24.37,24.24,30,11,30,0.00
2013-6-9,98,82,65,50,40,22,55,26,11,24.47,24.34,17,7,17,0.00
2013-6-10,102,86,71,51,41,18,45,23,11,24.48,24.19,23,8,23,0.00
2013-6-11,102,87,71,45,30,14,16,13,11,24.51,24.36,25,9,25,0.00
2013-6-12,101,85,64,45,30,16,18,14,11,24.53,24.42,20,6,20,0.00
2013-6-13,102,87,69,46,36,19,26,17,11,24.51,24.38,29,10,29,0.00
2013-6-14,96,79,68,90,48,36,97,36,13,24.47,24.33,37,9,37,0.00
2013-6-15,96,79,62,53,43,28,64,33,11,24.52,24.38,36,10,36,0.38
2013-6-16,96,80,64,46,41,29,46,27,12,24.54,24.44,51,10,51,0.50
2013-6-17,97,80,64,50,39,29,44,25,12,24.54,24.38,23,8,23,0.00
2013-6-18,92,78,64,89,48,36,97,38,15,24.54,24.33,23,10,23,0.00
2013-6-19,100,82,63,46,35,16,42,21,11,24.42,24.25,26,8,26,0.00
2013-6-20,99,82,63,46,30,16,45,17,11,24.50,24.21,37,8,37,0.06
2013-6-21,97,81,61,45,28,16,33,15,11,24.48,24.30,22,8,22,0.00
2013-6-22,94,80,61,38,26,16,19,14,11,24.45,24.30,24,9,24,0.00
2013-6-23,95,80,61,38,26,16,19,14,11,24.43,24.27,22,8,22,0.00
2013-6-24,94,80,66,38,26,16,16,13,11,24.43,24.31,29,10,29,0.00
2013-6-25,98,83,65,38,28,16,18,14,11,24.50,24.38,20,8,20,0.00
2013-6-26,102,85,65,46,30,18,20,14,11,24.54,24.43,22,6,22,0.00
2013-6-27,108,91,74,46,34,24,19,14,11,24.57,24.45,25,8,25,0.00
2013-6-28,100,86,71,57,42,26,60,24,11,24.64,24.52,44,11,44,0.06
2013-6-29,101,81,67,51,45,35,54,32,11,24.60,24.43,45,11,45,0.01
2013-6-30,98,80,67,53,46,36,54,33,12,24.59,24.38,39,10,39,0.19
2013-7-1,89,74,60,58,52,44,85,51,22,24.63,24.48,26,8,26,0.00
2013-7-2,90,73,60,56,50,40,71,47,22,24.63,24.43,31,10,31,0.00
2013-7-3,88,71,59,61,56,43,91,61,26,24.58,24.35,44,7,44,0.08
2013-7-4,96,78,61,60,52,36,82,46,13,24.44,24.33,21,6,21,0.01
2013-7-5,94,78,67,63,54,46,83,47,22,24.47,24.30,32,8,32,0.07
2013-7-6,93,76,63,63,56,46,90,56,22,24.49,24.32,28,9,28,0.00
2013-7-7,97,80,65,62,56,46,89,49,18,24.49,24.38,15,7,15,0.00
2013-7-8,97,80,68,63,56,48,84,46,22,24.61,24.47,25,9,25,0.00
2013-7-9,100,80,66,63,58,50,88,52,21,24.61,24.48,58,6,58,0.00
2013-7-10,98,83,71,59,54,49,60,39,21,24.59,24.45,24,8,24,0.00
2013-7-11,93,80,67,62,57,47,80,48,23,24.60,24.42,22,8,22,0.00
2013-7-12,96,80,68,61,56,48,70,47,24,24.51,24.42,26,8,26,0.00
2013-7-13,96,80,69,62,56,48,67,46,24,24.54,24.44,21,8,21,0.08
2013-7-14,99,79,66,64,58,48,95,54,20,24.55,24.35,29,7,29,0.65
2013-7-15,78,69,65,64,58,52,95,70,48,24.56,24.48,25,8,25,0.01
2013-7-16,85,71,61,55,50,42,77,49,26,24.63,24.51,25,6,25,0.00
2013-7-17,82,71,61,56,52,45,82,54,29,24.69,24.58,20,8,20,0.00
2013-7-18,88,74,61,57,54,50,82,53,31,24.65,24.49,17,7,17,0.00
2013-7-19,92,75,65,63,59,54,86,59,31,24.56,24.43,29,7,29,0.04
2013-7-20,93,76,64,62,59,52,91,60,32,24.51,24.36,23,9,23,0.05
2013-7-21,94,77,67,61,56,48,77,51,25,24.48,24.37,23,7,23,0.00
2013-7-22,98,82,67,58,52,40,67,39,14,24.48,24.38,21,6,21,0.00
2013-7-23,102,82,69,57,51,36,59,36,12,24.50,24.39,35,6,35,0.00
2013-7-24,94,75,65,63,55,47,89,54,27,24.58,24.46,29,7,29,0.06
2013-7-25,89,75,63,62,60,57,88,61,37,24.59,24.48,20,7,20,0.00
2013-7-26,92,74,60,62,59,55,99,65,32,24.69,24.49,44,11,44,0.60
2013-7-27,76,71,65,62,59,56,79,67,52,24.66,24.45,15,8,15,0.00
2013-7-28,87,76,65,66,60,53,92,61,34,24.48,24.38,21,7,21,0.00
2013-7-29,93,80,71,60,53,41,66,43,18,24.62,24.43,24,9,24,0.00
2013-7-30,96,82,67,52,46,32,54,31,13,24.66,24.54,25,6,25,0.00
2013-7-31,99,84,70,52,45,36,48,28,12,24.66,24.52,24,7,24,0.00
2013-8-1,87,74,65,65,58,52,95,60,35,24.64,24.52,31,7,31,0.41
2013-8-2,94,76,63,64,60,50,95,64,25,24.57,24.43,22,6,22,0.26
2013-8-3,95,78,62,62,57,50,92,54,24,24.56,24.46,14,6,14,0.00
2013-8-4,96,79,64,63,58,47,90,52,23,24.61,24.46,25,9,25,0.38
2013-8-5,84,76,73,61,58,55,63,54,41,24.49,24.42,15,5,15,0.07
2013-8-6,89,74,64,60,56,50,76,54,29,24.51,24.43,22,9,22,0.05
2013-8-7,84,72,62,60,56,48,82,59,33,24.51,24.43,25,9,25,0.00
2013-8-8,86,74,61,58,52,40,86,52,23,24.51,24.43,29,10,29,0.00
2013-8-9,92,74,61,53,48,36,67,42,16,24.59,24.49,27,10,27,0.02
2013-8-10,87,71,60,56,53,44,86,56,33,24.68,24.56,33,10,33,0.11
2013-8-11,87,71,60,59,54,47,92,59,25,24.68,24.51,14,5,14,0.00
2013-8-12,86,71,64,63,58,55,83,65,37,24.62,24.51,28,6,28,0.11
2013-8-13,92,76,64,60,52,38,79,47,19,24.60,24.50,22,6,22,0.06
2013-8-14,79,75,65,60,58,48,79,55,41,24.60,24.54,17,7,17,0.00
2013-8-15,78,78,78,59,59,59,52,52,52,24.60,24.60,6,6,6,0.00
2013-8-16,78,78,78,59,59,59,52,52,52,0.00,40.00,6,6,6,0.00
2013-8-17,78,78,78,59,59,59,52,52,52,0.00,40.00,6,6,6,0.00
2013-8-18,78,78,78,59,59,59,52,52,52,0.00,40.00,6,6,6,0.00
2013-8-19,78,78,78,59,59,59,52,52,52,0.00,40.00,6,6,6,0.00
2013-8-20,78,78,78,59,59,59,52,52,52,0.00,40.00,6,6,6,0.00
2013-8-21,78,78,78,59,59,59,52,52,52,0.00,40.00,6,6,6,0.00
2013-8-22,78,78,78,59,59,59,52,52,52,0.00,40.00,6,6,6,0.00
2013-8-23,78,78,78,59,59,59,52,52,52,0.00,40.00,6,6,6,0.00
2013-8-24,78,78,78,59,59,59,52,52,52,0.00,40.00,6,6,6,0.00
2013-8-25,78,78,78,59,59,59,52,52,52,0.00,40.00,6,6,6,0.00
2013-8-26,78,78,78,59,59,59,52,52,52,0.00,40.00,6,6,6,0.00
2013-8-27,78,78,78,59,59,59,52,52,52,0.00,40.00,6,6,6,0.00
2013-8-28,78,78,78,59,59,59,52,52,52,0.00,40.00,6,6,6,0.00
2013-8-29,78,78,78,59,59,59,52,52,52,0.00,40.00,6,6,6,0.00
2013-8-30,78,78,78,59,59,59,52,52,52,0.00,40.00,6,6,6,0.00
2013-8-31,78,78,78,59,59,59,52,52,52,0.00,40.00,6,6,6,0.00
2013-9-1,78,78,78,59,59,59,52,52,52,0.00,40.00,6,6,6,0.00
2013-9-2,78,78,78,59,59,59,52,52,52,0.00,40.00,6,6,6,0.00
2013-9-3,78,78,78,59,59,59,52,52,52,0.00,40.00,6,6,6,0.00
2013-9-4,78,78,78,59,59,59,52,52,52,0.00,40.00,6,6,6,0.00
2013-9-5,78,78,78,59,59,59,52,52,52,0.00,40.00,6,6,6,0.00
2013-9-6,78,78,78,59,59,59,52,52,52,0.00,40.00,6,6,6,0.00
2013-9-7,78,78,78,59,59,59,52,52,52,0.00,40.00,6,6,6,0.00
2013-9-8,78,78,78,59,59,59,52,52,52,0.00,40.00,6,6,6,0.00
2013-9-9,78,78,78,59,59,59,52,52,52,0.00,40.00,6,6,6,0.00
2013-9-10,78,78,78,59,59,59,52,52,52,0.00,40.00,6,6,6,0.00
2013-9-11,78,78,78,59,59,59,52,52,52,0.00,40.00,6,6,6,0.00
2013-9-12,78,78,78,59,59,59,52,52,52,24.57,24.57,6,1,6,0.00
2013-9-13,78,78,78,59,59,59,52,52,52,24.57,24.57,0,0,0,0.00
2013-9-14,78,71,57,62,58,54,95,65,49,24.57,24.40,15,4,15,0.17
2013-9-15,83,67,56,58,55,49,99,71,32,24.55,24.46,12,5,12,0.13
2013-9-16,82,68,56,58,55,50,92,65,35,24.61,24.51,17,5,17,0.00
2013-9-17,84,70,59,59,57,53,90,65,38,24.55,24.39,15,6,15,0.00
2013-9-18,82,71,62,62,58,50,92,65,38,24.45,24.35,18,6,18,0.00
2013-9-19,86,71,60,61,51,33,92,55,21,24.46,24.37,14,6,14,0.08
2013-9-20,84,69,58,55,51,38,82,54,27,24.52,24.42,15,7,15,0.00
2013-9-21,83,68,58,57,54,48,90,62,35,24.52,24.36,20,7,20,0.00
2013-9-22,81,66,56,56,52,37,88,62,29,24.39,24.13,33,10,33,0.22
2013-9-23,73,63,47,43,35,26,72,37,19,24.58,24.27,26,11,26,0.00
2013-9-24,82,64,50,43,38,27,64,42,15,24.58,24.43,15,8,15,0.00
2013-9-25,86,69,50,45,40,29,69,37,15,24.43,24.20,21,6,21,0.00
2013-9-26,84,70,54,43,36,26,56,32,13,24.31,24.21,29,10,29,0.00
2013-9-27,71,58,46,52,41,29,63,54,40,24.47,24.26,29,9,29,0.00
2013-9-28,73,55,39,30,24,16,63,33,12,24.59,24.47,14,7,14,0.00
2013-9-29,80,60,44,29,24,16,48,28,12,24.61,24.46,15,4,15,0.00
2013-9-30,83,66,48,32,25,18,51,23,11,24.48,24.35,28,7,28,0.00
2013-10-1,87,62,52,31,24,20,36,24,11,24.46,24.37,13,5,13,0.00
2013-10-2,84,67,51,32,26,20,38,23,11,24.48,24.35,14,5,14,0.00
2013-10-3,80,65,49,38,30,22,54,29,12,24.39,24.21,27,6,27,0.00
2013-10-4,63,55,46,33,22,12,51,29,17,24.51,24.28,30,16,30,0.02
2013-10-5,63,50,35,25,19,14,58,31,19,24.63,24.51,24,12,24,0.00
2013-10-6,76,56,42,25,21,16,44,27,12,24.67,24.58,17,7,17,0.00
2013-10-7,77,60,42,26,21,16,44,24,13,24.64,24.48,14,6,14,0.00
2013-10-8,80,63,48,32,28,23,45,27,14,24.48,24.29,18,5,18,0.00
2013-10-9,77,63,48,38,31,21,53,33,15,24.37,24.28,20,7,20,0.00
2013-10-10,72,56,41,47,37,25,84,51,26,24.38,24.19,44,13,44,0.25
2013-10-11,64,51,33,36,32,28,84,50,27,25.14,24.37,56,8,56,0.00
2013-10-12,72,54,40,38,34,28,75,50,21,24.54,24.40,15,7,15,0.00
2013-10-13,78,62,50,46,40,34,60,46,22,24.53,24.34,29,12,29,0.00
2013-10-14,71,58,44,46,28,15,63,35,14,24.47,24.38,20,8,20,0.00
2013-10-15,68,53,41,38,27,20,64,39,21,24.47,24.34,18,10,18,0.00
2013-10-16,63,50,41,38,28,11,78,47,19,24.51,24.41,22,11,22,0.00
2013-10-17,69,51,34,22,17,12,48,28,15,24.51,24.12,18,6,23,0.00
2013-10-18,62,51,36,22,16,9,46,26,18,24.52,24.36,31,12,31,0.04
2013-10-19,69,50,34,30,22,14,74,40,14,24.56,24.43,17,6,17,0.00
2013-10-20,71,56,40,21,17,13,44,24,13,24.44,24.30,24,8,24,0.00
2013-10-21,68,52,40,34,27,14,73,40,20,24.55,24.51,17,7,17,0.00
2013-10-22,72,54,37,29,23,17,60,34,14,24.63,24.40,13,5,13,0.00
2013-10-23,74,57,42,27,22,18,44,27,14,24.58,24.48,58,5,58,0.00
2013-10-24,77,60,48,49,29,20,89,35,16,24.61,24.48,26,7,26,0.09
2013-10-25,68,53,46,50,46,40,99,80,44,24.64,24.50,33,9,33,0.14
2013-10-26,70,53,41,46,41,32,98,68,29,24.65,24.56,14,5,14,0.00
2013-10-27,63,48,41,43,38,36,84,70,43,24.60,24.52,8,4,8,0.00
2013-11-3,68,57,47,41,32,26,62,41,22,29.91,24.19,20,8,20,0.00
2013-11-4,68,56,39,44,38,33,78,52,29,24.42,24.20,25,8,25,0.00
2013-11-5,52,43,33,45,32,12,99,67,38,24.57,24.24,30,13,30,0.22
2013-11-6,55,41,27,21,15,8,57,37,21,24.73,24.57,21,10,21,0.00
2013-11-7,64,46,34,24,20,14,55,36,19,24.76,24.60,13,6,13,0.00
2013-11-8,66,50,34,29,23,16,56,37,21,24.60,24.43,13,6,13,0.00
2013-11-9,72,54,36,28,22,16,60,32,12,24.58,24.47,15,5,15,0.00
2013-11-10,73,54,43,28,23,18,46,32,13,24.65,24.56,14,6,14,0.00
2013-11-11,73,55,44,28,22,16,50,30,13,24.70,24.58,16,8,16,0.00
2013-11-12,60,48,38,37,33,20,88,58,31,24.85,24.69,21,9,21,0.00
2013-11-13,58,44,33,39,36,33,99,78,47,24.81,24.50,15,6,15,0.00
2013-11-14,66,47,34,46,34,24,99,67,25,24.50,24.33,15,4,15,0.00
2013-11-15,62,46,34,46,35,26,92,66,35,24.33,24.12,58,7,58,0.07
2013-11-16,60,49,40,44,36,26,92,65,35,24.25,24.09,23,9,23,0.12
2013-11-17,61,49,38,34,30,26,74,51,33,24.53,24.09,20,8,20,0.00
2013-11-18,62,46,37,34,31,27,72,57,33,24.58,24.48,13,5,13,0.00
2013-11-19,65,49,34,37,32,27,79,55,31,24.49,24.29,14,5,14,0.00
2013-11-20,50,44,42,44,38,31,99,80,58,24.35,24.28,18,4,18,0.17
2013-11-21,54,45,39,48,43,38,99,93,78,24.46,24.33,13,5,13,0.27
2013-11-22,42,34,31,42,30,26,99,83,75,24.63,24.45,17,8,17,0.09
2013-11-23,37,33,27,31,26,19,96,75,64,24.68,24.58,23,9,23,0.00
2013-11-24,37,27,23,27,20,15,92,75,45,24.62,24.42,14,6,14,0.05
2013-11-25,46,34,26,33,27,22,96,78,58,24.63,24.38,21,9,21,0.04
2013-11-26,53,38,27,34,28,22,88,70,45,24.71,24.62,10,4,10,0.00
2013-11-27,52,37,26,31,27,20,85,67,43,24.68,24.51,13,5,13,0.00
2013-11-28,53,38,27,28,25,20,87,62,33,24.59,24.51,13,5,13,0.00
2013-11-29,58,42,30,32,28,23,78,60,32,24.65,24.56,10,5,10,0.00
2013-11-30,60,44,34,35,32,26,77,63,37,24.64,24.54,10,5,10,0.00
2013-12-1,50,38,32,34,30,26,87,74,54,24.62,24.54,27,12,27,0.00
2013-12-2,54,39,31,31,28,25,80,64,35,24.53,24.25,24,10,24,0.00
2013-12-3,65,47,32,29,21,13,73,40,16,24.25,24.05,34,10,34,0.02
2013-12-4,59,44,35,34,24,14,76,47,23,24.23,24.02,42,15,42,0.52
2013-12-5,35,26,15,30,22,9,99,84,59,24.29,24.18,58,8,58,0.00
2013-12-6,36,24,10,20,12,6,82,61,36,24.43,24.29,13,5,13,0.00
2013-12-7,32,25,17,29,18,8,93,76,57,24.41,24.19,17,8,17,0.00
2013-12-8,36,28,23,23,13,3,73,53,34,24.31,24.13,32,13,32,0.00
2013-12-9,31,23,14,12,2,-8,67,43,21,24.68,24.31,30,14,30,0.00
2013-12-10,43,24,12,7,-2,-9,47,34,21,24.70,24.53,16,6,16,0.00
2013-12-11,44,30,16,14,7,-2,54,38,25,24.74,24.55,14,7,14,0.00
2013-12-12,43,34,25,19,12,3,54,41,24,24.50,24.44,17,8,17,0.00
2013-12-13,46,36,30,37,24,15,82,61,46,24.44,24.30,31,10,31,0.00
2013-12-14,52,35,26,20,16,11,65,48,22,24.67,24.43,21,11,21,0.00
2013-12-15,49,37,27,21,17,12,58,45,27,24.68,24.59,25,13,25,0.00
2013-12-16,55,42,28,23,19,16,66,41,22,24.67,24.67,34,11,34,0.01
2013-12-17,62,44,33,25,21,16,58,41,20,24.72,24.61,20,7,20,0.00
2013-12-18,56,41,30,25,21,18,64,47,23,24.60,24.32,9,5,9,0.00
2013-12-19,38,38,38,23,23,23,55,55,55,24.32,24.32,7,7,7,0.00
2013-12-20,38,38,38,23,23,23,55,55,55,24.32,24.32,7,7,7,0.00
2013-12-21,38,38,38,23,23,23,55,55,55,24.32,24.32,7,7,7,0.00
2013-12-22,38,38,38,23,23,23,55,55,55,24.32,24.32,7,7,7,0.00
2013-12-23,38,38,38,23,23,23,55,55,55,24.32,24.32,7,7,7,0.00
2013-12-24,38,38,38,23,23,23,55,55,55,24.32,24.32,7,7,7,0.00
2013-12-25,38,38,38,23,23,23,55,55,55,24.32,24.32,7,7,7,0.00
2013-12-26,38,38,38,23,23,23,55,55,55,24.32,24.32,7,7,7,0.00
2013-12-27,38,38,38,23,23,23,55,55,55,24.32,24.32,7,7,7,0.00
2013-12-28,38,38,38,23,23,23,55,55,55,24.32,24.32,7,7,7,0.00
2013-12-29,38,38,38,23,23,23,55,55,55,24.32,24.32,7,7,7,0.00
2013-12-30,38,38,38,23,23,23,55,55,55,24.32,24.09,7,3,7,0.00
2013-12-31,38,38,38,23,23,23,55,55,55,24.09,24.09,0,0,0,0.00
2014-1-1,38,38,38,23,23,23,55,55,55,24.09,24.09,0,0,0,0.00
2014-1-2,38,38,38,23,23,23,55,55,55,24.09,24.09,0,0,0,0.00